Shelby, NC

7:37 PM EST on November 23, 2017 (GMT -0500)
Shelby Municipal

Weather History for KEHO - February, 2013

Change the Weather History Date:

Wednesday, February 27, 2013

  Actual Average (KHKY) Record (KHKY)
Temperature  
Mean Temperature 44 °F -  
Max Temperature 55 °F 54 °F 75 °F (2011)
Min Temperature 33 °F 30 °F 9 °F (1963)
Degree Days  
Heating Degree Days 22    
Moisture  
Dew Point 35 °F    
Average Humidity 68    
Maximum Humidity 100    
Minimum Humidity 46    
Precipitation  
Precipitation 0.00 in - - ()
Sea Level Pressure  
Sea Level Pressure 29.74 in    
Wind  
Wind Speed 7 mph (SW)    
Max Wind Speed 15 mph    
Max Gust Speed 23 mph    
Visibility 10 miles    
Events      
Averages and records for this station are not official NWS values.
T = Trace of Precipitation, MM = Missing Value Source: NWS Daily Summary

Daily Weather History Graph

Daily Weather History Graph

Search for Another Location

Airport or City:

Trip Planner

Search our weather history database for the weather conditions in past years. The results will help you decide how hot, cold, wet, or windy it might be!

Date:

Astronomy

Feb. 27, 2013 Rise Set
Actual Time 6:58 AM EST 6:20 PM EST
Civil Twilight 6:32 AM EST 6:45 PM EST
Nautical Twilight 6:03 AM EST 7:15 PM EST
Astronomical Twilight 5:33 AM EST 7:44 PM EST
Moon 8:32 PM EST (2/27) 7:38 AM EST (2/27)
Length of Visible Light 12h 13m
Length of Day
11h 22m
Waning Gibbous, 96% of the Moon is Illuminated
Feb 27
Waning Gibbous
Mar 4
Last Quarter
Mar 11
New
Mar 19
First Quarter
Mar 27
Full

Hourly Weather History & Observations

Time (EST) Temp. Windchill Dew Point Humidity Pressure Visibility Wind Dir Wind Speed Gust Speed Precip Events Conditions
12:15 AM 40.5 °F 34.1 °F 40.5 °F 100% 29.65 in 3.0 mi SSW 10.4 mph - N/A   Overcast
12:35 AM 40.6 °F 35.4 °F 40.6 °F 100% 29.66 in 5.0 mi SSW 8.1 mph - N/A   Overcast
12:55 AM 40.6 °F 36.0 °F 40.6 °F 100% 29.66 in 7.0 mi SSW 6.9 mph - N/A   Overcast
1:15 AM 40.8 °F 37.8 °F 40.6 °F 99% 29.66 in 7.0 mi South 4.6 mph - N/A   Overcast
1:35 AM 40.6 °F 37.5 °F 40.5 °F 99% 29.66 in 7.0 mi South 4.6 mph - N/A   Overcast
1:55 AM 40.1 °F 38.0 °F 39.2 °F 97% 29.66 in 7.0 mi SSW 3.5 mph - N/A   Mostly Cloudy
2:35 AM 39.0 °F 35.7 °F 37.6 °F 95% 29.67 in 10.0 mi WSW 4.6 mph - N/A   Clear
2:55 AM 39.2 °F 35.0 °F 37.4 °F 93% 29.67 in 10.0 mi WSW 5.8 mph - N/A   Clear
3:15 AM 39.2 °F 35.0 °F 36.5 °F 90% 29.68 in 10.0 mi WSW 5.8 mph - N/A   Clear
3:35 AM 39.2 °F 35.0 °F 36.1 °F 89% 29.68 in 10.0 mi WSW 5.8 mph - N/A   Clear
3:55 AM 38.7 °F 33.6 °F 36.1 °F 91% 29.68 in 10.0 mi SW 6.9 mph - N/A   Clear
4:15 AM 37.4 °F 33.8 °F 35.1 °F 91% 29.68 in 10.0 mi SW 4.6 mph - N/A   Clear
4:35 AM 37.4 °F 33.8 °F 34.9 °F 91% 29.69 in 10.0 mi WSW 4.6 mph - N/A   Clear
4:55 AM 37.4 °F 33.8 °F 34.7 °F 90% 29.69 in 10.0 mi SW 4.6 mph - N/A   Clear
5:15 AM 37.4 °F 32.8 °F 35.1 °F 91% 29.70 in 10.0 mi WSW 5.8 mph - N/A   Clear
5:35 AM 37.4 °F 33.8 °F 34.9 °F 91% 29.71 in 10.0 mi SW 4.6 mph - N/A   Clear
5:55 AM 36.5 °F 31.8 °F 34.5 °F 93% 29.72 in 10.0 mi WSW 5.8 mph - N/A   Clear
6:15 AM 35.4 °F - 34.2 °F 95% 29.72 in 10.0 mi Calm Calm - N/A   Clear
6:35 AM 37.2 °F 34.7 °F 35.1 °F 92% 29.73 in 10.0 mi WSW 3.5 mph - N/A   Clear
6:55 AM 33.8 °F - 31.6 °F 92% 29.74 in 7.0 mi Calm Calm - N/A   Clear
7:15 AM 36.0 °F - 34.5 °F 94% 29.74 in 10.0 mi Calm Calm - N/A   Clear
7:35 AM 36.1 °F - 33.8 °F 91% 29.75 in 10.0 mi Calm Calm - N/A   Clear
7:55 AM 36.3 °F - 34.5 °F 93% 29.76 in 10.0 mi Calm Calm - N/A   Clear
8:15 AM 38.3 °F 34.8 °F 34.3 °F 86% 29.77 in 10.0 mi WSW 4.6 mph - N/A   Clear
8:35 AM 39.6 °F 36.3 °F 35.1 °F 84% 29.79 in 10.0 mi SW 4.6 mph - N/A   Clear
8:55 AM 41.4 °F 39.4 °F 35.8 °F 81% 29.79 in 10.0 mi SW 3.5 mph - N/A   Clear
9:15 AM 42.8 °F 38.0 °F 35.4 °F 75% 29.79 in 10.0 mi SW 8.1 mph - N/A   Clear
9:35 AM 43.9 °F 39.3 °F 35.8 °F 73% 29.80 in 10.0 mi SW 8.1 mph - N/A   Clear
9:55 AM 45.1 °F 40.8 °F 35.8 °F 70% 29.80 in 10.0 mi WSW 8.1 mph - N/A   Clear
10:15 AM 46.4 °F 42.4 °F 35.2 °F 65% 29.80 in 10.0 mi SW 8.1 mph - N/A   Clear
10:35 AM 47.7 °F - 34.9 °F 61% 29.80 in 10.0 mi WSW 5.8 mph - N/A   Clear
10:55 AM 48.4 °F - 34.7 °F 59% 29.80 in 10.0 mi WSW 9.2 mph - N/A   Clear
11:15 AM 49.1 °F - 34.3 °F 57% 29.80 in 10.0 mi SSW 6.9 mph - N/A   Clear
11:35 AM 50.9 °F - 35.2 °F 55% 29.81 in 10.0 mi SW 9.2 mph - N/A   Clear
11:55 AM 51.3 °F - 35.1 °F 54% 29.81 in 10.0 mi SSW 6.9 mph - N/A   Clear
12:15 PM 51.4 °F - 33.4 °F 50% 29.80 in 10.0 mi South 8.1 mph - N/A   Clear
12:35 PM 52.0 °F - 32.5 °F 48% 29.79 in 10.0 mi SW 9.2 mph - N/A   Clear
12:55 PM 51.6 °F - 32.9 °F 49% 29.79 in 10.0 mi SSW 9.2 mph 16.1 mph N/A   Clear
1:15 PM 52.9 °F - 34.7 °F 50% 29.78 in 10.0 mi SW 9.2 mph 16.1 mph N/A   Scattered Clouds
1:55 PM 53.8 °F - 35.1 °F 49% 29.77 in 10.0 mi SW 9.2 mph 18.4 mph N/A   Clear
2:15 PM 53.4 °F - 34.2 °F 48% 29.76 in 10.0 mi SSW 11.5 mph - N/A   Clear
2:35 PM 54.3 °F - 35.1 °F 48% 29.76 in 10.0 mi SW 11.5 mph 18.4 mph N/A   Mostly Cloudy
2:55 PM 54.7 °F - 34.3 °F 46% 29.75 in 10.0 mi SSW 10.4 mph - N/A   Mostly Cloudy
3:15 PM 54.7 °F - 35.2 °F 48% 29.75 in 10.0 mi SW 11.5 mph - N/A   Scattered Clouds
3:35 PM 54.9 °F - 35.2 °F 48% 29.75 in 10.0 mi SSW 12.7 mph - N/A   Clear
3:55 PM 54.9 °F - 35.4 °F 48% 29.75 in 10.0 mi SW 15.0 mph - N/A   Clear
4:15 PM 54.7 °F - 34.5 °F 47% 29.74 in 10.0 mi South 10.4 mph - N/A   Scattered Clouds
4:35 PM 54.9 °F - 35.1 °F 47% 29.74 in 10.0 mi SSW 11.5 mph - N/A   Scattered Clouds
5:15 PM 54.7 °F - 34.7 °F 47% 29.73 in 10.0 mi SSW 9.2 mph - N/A   Clear
5:35 PM 54.7 °F - 34.9 °F 47% 29.74 in 10.0 mi SSW 10.4 mph - N/A   Clear
5:55 PM 54.0 °F - 34.5 °F 48% 29.73 in 10.0 mi South 6.9 mph - N/A   Clear
6:15 PM 53.1 °F - 34.7 °F 50% 29.73 in 10.0 mi SSW 9.2 mph - N/A   Clear
6:35 PM 52.5 °F - 34.3 °F 50% 29.74 in 10.0 mi South 6.9 mph - N/A   Clear
6:55 PM 51.6 °F - 34.7 °F 52% 29.75 in 10.0 mi South 6.9 mph - N/A   Clear
7:15 PM 51.3 °F - 34.5 °F 53% 29.74 in 10.0 mi South 4.6 mph - N/A   Clear
7:35 PM 50.4 °F - 34.3 °F 54% 29.73 in 10.0 mi South 5.8 mph - N/A   Clear
7:55 PM 49.8 °F - 34.0 °F 55% 29.74 in 10.0 mi SSW 6.9 mph - N/A   Clear
8:15 PM 49.3 °F - 34.3 °F 56% 29.73 in 10.0 mi SSW 9.2 mph - N/A   Clear
8:35 PM 49.1 °F - 34.0 °F 56% 29.74 in 10.0 mi SW 11.5 mph - N/A   Clear
8:55 PM 49.5 °F - 33.3 °F 54% 29.73 in 10.0 mi SW 15.0 mph 23.0 mph N/A   Clear
9:15 PM 49.3 °F - 33.3 °F 54% 29.74 in 10.0 mi SW 13.8 mph - N/A   Clear
9:35 PM 49.5 °F - 32.7 °F 53% 29.74 in 10.0 mi SW 13.8 mph 21.9 mph N/A   Clear
9:55 PM 49.5 °F - 32.4 °F 52% 29.75 in 10.0 mi WSW 15.0 mph 20.7 mph N/A   Clear
10:15 PM 48.7 °F - 32.5 °F 54% 29.75 in 10.0 mi SW 15.0 mph - N/A   Clear
10:35 PM 48.4 °F - 32.2 °F 54% 29.75 in 10.0 mi WSW 11.5 mph - N/A   Clear
10:55 PM 48.2 °F - 32.2 °F 54% 29.75 in 10.0 mi WSW 10.4 mph - N/A   Scattered Clouds
11:15 PM 47.7 °F - 32.7 °F 56% 29.75 in 10.0 mi West 9.2 mph - N/A   Mostly Cloudy
11:35 PM 47.1 °F - 32.5 °F 57% 29.75 in 10.0 mi West 6.9 mph - N/A   Scattered Clouds
11:55 PM 46.0 °F 43.9 °F 32.9 °F 60% 29.75 in 10.0 mi West 4.6 mph - N/A   Clear